カタログに戻る

STARLINK-30891

運用中通信VLEO
NORAD 58367·PAYLOAD·🇺🇸 United States

打ち上げ Nov 18, 2023 から Cape Canaveral Space Force Station

Loading…

次のパス (今後24時間)

TLE

最新Source: CelesTrak SupGP

元期: Sep 14, 2026, 20:43 UTC

1 58367C 23177S   26257.86368056  .00028734  00000+0  10407-2 0  2577
2 58367  43.0015   2.4827 0001503 271.8093 188.1463 15.27564462    10

AllMySatでSTARLINK-30891をリアルタイム追跡

Download on the App Store